[[{"header":{"parameterUnit":"m.s-1","parameterCategory":1,"la1":30.2991,"la2":30.254,"lo1":-89.0895,"lo2":-89.0444,"dy":0.0017,"dx":0.0017,"nx":28,"ny":28,"refTime":"2025-06-09T09:00:00:Z","depth":0,"parameterNumber":2,"parameterNumberName":"U-component_of_WINDS"},"data":[0,0,0,0,0,0,0,0,0,0,0,0,0,0,0,0,0,0,0,0,0,0,0,0,0,0,0,0,0,0,0,0,0,0,0,0,0,0,0,0,0,0,0,0,0,0,0,0,0,0,0,0,0,0,0,0,0,0,4.9751,4.9753,0,4.9913,4.9915,4.9917,4.9865,4.9861,4.9858,4.9854,5.0021,5.0028,5.0036,0,0,0,0,0,0,0,0,0,0,0,0,0,4.9396,4.9403,4.9751,4.9753,4.9755,4.9913,4.9915,4.9917,4.9865,4.9861,4.9857,4.9853,5.0018,5.0027,5.0036,0,0,0,0,0,0,0,0,0,0,0,0,0,4.9553,4.9405,4.9751,4.9748,4.975,4.9912,4.9915,4.9918,4.9866,4.9861,4.9856,4.9851,5.0015,5.0026,5.0038,5.0213,0,0,5.0073,5.0078,0,0,0,0,0,0,0,0,4.9544,4.9566,4.9747,4.9749,4.975,4.9863,4.9851,5.0017,4.9867,4.9822,4.9854,4.9848,4.9973,4.9987,5.0029,5.0221,5.0228,5.0074,5.0081,5.0086,5.0089,0,0,0,0,0,0,0,4.9534,4.9559,4.9815,4.9749,4.9752,4.9738,4.9755,4.9882,4.9924,4.9825,4.9822,4.9842,4.9973,5.0018,5.0033,5.023,5.0074,5.0084,5.0091,5.0095,5.057,5.0575,0,0,0,0,0,0,4.9522,4.955,4.981,4.982,4.9633,4.9749,4.9768,4.9832,4.9923,4.9932,4.9846,4.9839,5.0001,5.0019,5.0038,5.0246,5.0086,5.0096,5.0103,5.0564,5.0571,5.0577,0,0,0,0,0,0,4.9514,4.9545,4.9803,4.9684,4.9716,4.9761,4.9834,4.9838,4.9883,4.9939,4.9946,4.9885,4.9998,5.0022,5.0169,5.0251,5.0102,5.0112,5.0557,5.0566,5.0574,5.0665,0,0,0,0,0,0,4.9504,4.9543,4.961,4.9686,4.9723,4.9932,4.9839,4.9845,4.9903,4.9895,4.9977,4.9985,4.9995,5.0152,5.018,5.0264,5.0121,5.055,5.0561,5.0571,5.0655,5.0676,5.0694,0,0,0,0,0,4.9492,4.9631,4.9614,4.9646,4.9808,4.9937,4.9958,4.9966,4.991,4.9978,5.0013,4.9983,5.0238,5.0167,5.0199,5.0288,5.0545,5.0558,5.057,5.0647,5.0672,5.0693,0,0,0,0,0,0,4.9564,4.9641,4.9623,4.9791,4.9858,4.9928,5.0013,4.9994,5.0078,5.0067,5.0075,5.0093,5.0243,5.0281,5.0201,5.046,5.0383,5.0403,5.043,5.0455,5.0474,5.0461,5.0131,0,0,0,0,0,4.96,4.9698,4.976,4.9901,4.9936,4.9969,5.0026,5.0026,5.0096,5.0124,5.017,5.0239,5.0334,5.0397,5.0488,5.0661,5.0676,5.0737,5.0757,5.0772,5.0789,5.0879,5.0906,5.0619,5.0619,5.0619,0,0,4.9674,4.9728,4.979,4.9917,4.9969,5.007,4.9993,5.0104,5.0178,5.0141,5.0281,5.0318,5.0395,5.0554,5.0627,5.059,5.0871,5.0789,5.0801,5.0809,5.0895,5.0922,5.0947,5.0628,5.0626,5.0625,0,0,4.986,4.9912,5.0034,5.0087,5.0166,5.0187,5.0216,5.029,5.0312,5.0453,5.0426,5.0514,5.068,5.0734,5.0784,5.0989,5.0963,5.1018,5.1119,5.1207,5.123,5.125,5.132,5.1345,5.1035,5.1035,5.1035,0,4.9942,5.0093,5.01,5.0212,5.0268,5.0238,5.036,5.0412,5.0517,5.0556,5.0513,5.0717,5.0767,5.0938,5.0987,5.103,5.1061,5.1008,5.1226,5.1246,5.1265,5.1332,5.1358,5.1041,5.104,5.104,5.1039,0,5.0189,5.0294,5.0383,5.0484,5.055,5.0667,5.069,5.0757,5.0751,5.0776,5.0919,5.0977,5.1078,5.1119,5.1116,5.1289,5.1263,5.1223,5.1145,5.1298,5.1361,5.1387,5.105,5.1047,5.1046,5.1044,0,0,5.0426,5.0527,5.0559,5.0603,5.0687,5.0768,5.0883,5.0981,5.1036,5.111,5.1204,5.1344,5.1306,5.1363,5.1365,5.1443,5.1597,5.1394,5.1395,5.1427,5.1788,5.1815,5.1845,5.1582,5.1587,5.1591,5.178,0,5.0617,5.0818,5.0826,5.1009,5.1105,5.1077,5.1176,5.1238,5.1264,5.1349,5.1378,5.1475,5.142,5.1453,5.1529,5.1563,5.167,5.1549,5.1668,5.1672,5.1647,5.1878,5.1908,5.2084,5.1805,5.1809,5.1813,0,5.0866,5.0945,5.1138,5.1205,5.1246,5.1335,5.1424,5.1506,5.1574,5.1588,5.1649,5.164,5.1756,5.1675,5.1834,5.1752,5.1801,5.1825,5.1832,5.1841,5.175,5.1891,5.2141,5.2167,5.1852,5.1849,5.1846,0,5.1016,5.1171,5.1305,5.1344,5.1427,5.149,5.1528,5.1591,5.1648,5.1726,5.1763,5.1854,5.1903,5.1973,5.1987,5.1928,5.2145,5.2067,5.2158,5.2157,5.2203,5.22,5.2462,5.224,5.2239,5.2239,5.2238,0,5.1227,5.1345,5.1373,5.1455,5.1586,5.1594,5.1723,5.1756,5.1812,5.1899,5.1882,5.1964,5.1979,5.2064,5.2077,5.2204,5.2228,5.224,5.2242,5.2241,5.2238,5.2271,5.2258,5.2246,5.2244,5.2243,5.2241,0,5.1415,5.1439,5.1583,5.1649,5.1668,5.1761,5.1817,5.1896,5.1919,5.203,5.2056,5.2093,5.2192,5.2214,5.2332,5.234,5.249,5.2481,5.2467,5.2465,5.2554,5.2544,5.2844,5.2882,5.2638,5.264,5.2642,0,5.1547,5.1637,5.1712,5.1769,5.1809,5.1901,5.1959,5.197,5.203,5.2114,5.2181,5.2278,5.2356,5.2516,5.2553,5.2642,5.2633,5.2732,5.2646,5.2641,5.2631,5.2624,5.2632,5.2748,5.275,5.2752,5.2754,0,5.1777,5.1784,5.1868,5.1956,5.2024,5.2094,5.2161,5.2208,5.2228,5.2297,5.2397,5.2457,5.2577,5.2672,5.2762,5.2799,5.278,5.2781,5.2806,5.2805,5.2791,5.2796,5.2508,5.2774,5.2772,5.277,5.2769,5.2768,5.194,5.2017,5.2081,5.2174,5.2225,5.2286,5.2362,5.2394,5.2478,5.2575,5.2577,5.2686,5.275,5.2867,5.291,5.2995,5.2964,5.3001,5.301,5.3018,5.3025,5.278,5.3012,5.3011,5.3011,5.301,5.301,0,5.2166,5.2205,5.2291,5.2383,5.2456,5.2431,5.2503,5.2565,5.2661,5.2722,5.2798,5.2912,5.3004,5.3048,5.3138,5.3197,5.319,5.322,5.3215,5.3223,5.3049,5.3017,5.3224,5.3224,5.3224,5.3224,5.3224,5.3224,5.2292,5.242,5.2434,5.2587,5.2625,5.2731,5.2773,5.283,5.2878,5.3006,5.3082,5.3109,5.3163,5.3256,5.3339,5.3349,5.3382,5.3416,5.3422,5.3258,5.3236,5.3215,5.3184,5.3424,5.3424,5.3588,5.359,5.3591]},{"header":{"parameterUnit":"m.s-1","parameterCategory":1,"la1":30.2991,"la2":30.254,"lo1":-89.0895,"lo2":-89.0444,"dy":0.0017,"dx":0.0017,"nx":28,"ny":28,"refTime":"2025-06-09T09:00:00:Z","depth":0,"parameterNumber":3,"parameterNumberName":"V-component_of_WINDS"},"data":[0,0,0,0,0,0,0,0,0,0,0,0,0,0,0,0,0,0,0,0,0,0,0,0,0,0,0,0,0,0,0,0,0,0,0,0,0,0,0,0,0,0,0,0,0,0,0,0,0,0,0,0,0,0,0,0,0,0,2.1524,2.1524,0,2.1581,2.1582,2.1582,2.1565,2.1564,2.1563,2.1562,2.1618,2.1621,2.1623,0,0,0,0,0,0,0,0,0,0,0,0,0,2.1397,2.1399,2.1524,2.1524,2.1525,2.1581,2.1582,2.1582,2.1566,2.1564,2.1563,2.1561,2.1617,2.1621,2.1624,0,0,0,0,0,0,0,0,0,0,0,0,0,2.1453,2.14,2.1524,2.1524,2.1524,2.1581,2.1582,2.1583,2.1566,2.1564,2.1562,2.1561,2.1616,2.162,2.1624,2.1683,0,0,2.1636,2.1638,0,0,0,0,0,0,0,0,2.145,2.1457,2.1523,2.1524,2.1524,2.1564,2.1558,2.1616,2.1566,2.155,2.1562,2.156,2.1602,2.1607,2.1621,2.1686,2.1689,2.1636,2.1639,2.164,2.1641,0,0,0,0,0,0,0,2.1446,2.1455,2.1546,2.1524,2.1525,2.152,2.1526,2.1569,2.1585,2.1551,2.155,2.1557,2.1602,2.1617,2.1622,2.1689,2.1636,2.164,2.1642,2.1644,2.1804,2.1806,0,0,0,0,0,0,2.1442,2.1452,2.1544,2.1548,2.1482,2.1523,2.153,2.1553,2.1584,2.1588,2.1559,2.1556,2.1612,2.1618,2.1624,2.1695,2.164,2.1644,2.1646,2.1802,2.1805,2.1807,0,0,0,0,0,0,2.1439,2.145,2.1542,2.15,2.1511,2.1527,2.1554,2.1555,2.1571,2.159,2.1593,2.1572,2.1611,2.1619,2.1669,2.1697,2.1646,2.1649,2.18,2.1803,2.1806,2.1838,0,0,0,0,0,0,2.1435,2.1449,2.1473,2.15,2.1513,2.1587,2.1555,2.1558,2.1578,2.1575,2.1603,2.1606,2.161,2.1663,2.1673,2.1701,2.1652,2.1798,2.1801,2.1805,2.1834,2.1842,2.1848,0,0,0,0,0,2.1431,2.148,2.1474,2.1486,2.1543,2.1589,2.1596,2.16,2.1581,2.1604,2.1616,2.1605,2.1692,2.1668,2.1679,2.1709,2.1796,2.18,2.1804,2.1832,2.184,2.1848,0,0,0,0,0,0,2.1455,2.1483,2.1478,2.1537,2.156,2.1586,2.1615,2.1609,2.1638,2.1634,2.1637,2.1643,2.1694,2.1706,2.1679,2.1768,2.1741,2.1748,2.1758,2.1766,2.1773,2.1769,2.1656,0,0,0,0,0,2.1467,2.1502,2.1525,2.1575,2.1587,2.1599,2.1619,2.162,2.1644,2.1654,2.1669,2.1692,2.1725,2.1746,2.1777,2.1836,2.1841,2.1862,2.1868,2.1874,2.188,2.191,2.192,2.1821,2.1821,2.1821,0,0,2.1492,2.1512,2.1534,2.158,2.1598,2.1634,2.1608,2.1646,2.1672,2.1659,2.1708,2.1719,2.1745,2.18,2.1824,2.1812,2.1908,2.1879,2.1883,2.1886,2.1916,2.1925,2.1933,2.1824,2.1823,2.1823,0,0,2.1557,2.1576,2.1619,2.1638,2.1666,2.1674,2.1684,2.171,2.1718,2.1766,2.1757,2.1787,2.1843,2.1861,2.1878,2.1948,2.1939,2.1958,2.1993,2.2023,2.203,2.2037,2.2062,2.207,2.1963,2.1963,2.1964,0,2.1585,2.1639,2.1642,2.1682,2.1701,2.1691,2.1734,2.1752,2.1789,2.1802,2.1787,2.1856,2.1873,2.1931,2.1948,2.1962,2.1973,2.1955,2.2029,2.2036,2.2043,2.2066,2.2075,2.1966,2.1965,2.1965,2.1965,0,2.1672,2.1709,2.174,2.1776,2.1799,2.184,2.1849,2.1871,2.1869,2.1878,2.1927,2.1946,2.198,2.1994,2.1993,2.2051,2.2043,2.2028,2.2002,2.2054,2.2076,2.2085,2.1969,2.1968,2.1967,2.1967,0,0,2.1754,2.179,2.1802,2.1818,2.1847,2.1876,2.1915,2.1949,2.1968,2.1993,2.2026,2.2073,2.206,2.2079,2.2079,2.2105,2.2158,2.2088,2.2088,2.21,2.2223,2.2234,2.2244,2.2152,2.2154,2.2155,2.2221,0,2.1821,2.1892,2.1895,2.196,2.1993,2.1983,2.2018,2.2039,2.2048,2.2076,2.2085,2.2119,2.2099,2.211,2.2136,2.2146,2.2183,2.2142,2.2182,2.2183,2.2176,2.2256,2.2267,2.2328,2.2229,2.2231,2.2232,0,2.1909,2.1937,2.2005,2.2029,2.2043,2.2074,2.2105,2.2133,2.2156,2.216,2.2181,2.2177,2.2216,2.2187,2.2241,2.2213,2.2229,2.2236,2.2239,2.2243,2.2211,2.2262,2.2348,2.2357,2.2245,2.2244,2.2243,0,2.1962,2.2017,2.2064,2.2078,2.2107,2.2129,2.2141,2.2163,2.2183,2.2209,2.2221,2.2251,2.2268,2.2291,2.2294,2.2274,2.2348,2.232,2.2351,2.2351,2.2368,2.2367,2.2458,2.2378,2.2378,2.2378,2.2378,0,2.2037,2.2079,2.2088,2.2118,2.2163,2.2166,2.2211,2.2222,2.224,2.2271,2.2263,2.2291,2.2294,2.2323,2.2326,2.2369,2.2377,2.238,2.2381,2.2381,2.2381,2.2392,2.2388,2.2381,2.238,2.238,2.2379,0,2.2104,2.2112,2.2163,2.2186,2.2193,2.2226,2.2245,2.2272,2.2279,2.2317,2.2326,2.2337,2.2371,2.2376,2.2415,2.2417,2.2469,2.2465,2.2461,2.2461,2.2492,2.2489,2.2594,2.2607,2.2519,2.252,2.252,0,2.2151,2.2183,2.2209,2.2229,2.2244,2.2276,2.2296,2.2299,2.2319,2.2347,2.2371,2.2403,2.243,2.2483,2.2494,2.2523,2.2519,2.2554,2.2524,2.2523,2.252,2.2518,2.252,2.256,2.2561,2.2562,2.2562,0,2.2234,2.2236,2.2266,2.2297,2.2321,2.2345,2.2368,2.2384,2.239,2.2413,2.2448,2.2468,2.2507,2.2539,2.2568,2.258,2.2572,2.2572,2.2581,2.2582,2.2578,2.258,2.2477,2.257,2.2569,2.2568,2.2568,2.2568,2.2293,2.232,2.2343,2.2376,2.2393,2.2414,2.2441,2.2451,2.248,2.2513,2.2512,2.2549,2.257,2.2608,2.2621,2.265,2.2638,2.2651,2.2654,2.2658,2.266,2.2574,2.2655,2.2655,2.2654,2.2654,2.2654,0,2.2375,2.2388,2.2419,2.2451,2.2476,2.2467,2.2491,2.2513,2.2546,2.2566,2.2592,2.263,2.2661,2.2673,2.2703,2.2723,2.272,2.2731,2.2729,2.2732,2.2669,2.2658,2.2733,2.2733,2.2733,2.2733,2.2733,2.2733,2.2421,2.2466,2.2471,2.2524,2.2537,2.2574,2.2589,2.2608,2.2624,2.2667,2.2693,2.2701,2.2718,2.2749,2.2776,2.2779,2.279,2.2802,2.2803,2.2744,2.2736,2.2729,2.2719,2.2805,2.2805,2.2864,2.2864,2.2865]}]]